Temp
12 12 13 13 12 10 9 9 9 9 9 8 8 7 7 6 6 5 4 4 3 3
12 12 12 11 10 9 8 9 9 9 8 8 7 7 6 5 5 4 3 3 2 2
12 12 11 10 9 8 9 9 9 8 8 7 6 6 5 5 4 3 2 2 1 1
11 11 10 9 9 9 9 9 8 8 7 6 6 5 4 4 3 2 1 1 0 0
10 9 9 8 8 8 8 8 8 7 6 5 5 4 3 2 2 1 1 0 -0 -1
8 9 8 8 8 8 8 8 7 6 5 5 4 3 2 2 1 1 0 -1 -1 -2
7 7 7 7 7 7 7 6 5 5 4 4 3 2 2 1 1 -0 -1 -2 -3 -4
6 6 6 6 7 7 6 5 4 4 3 3 2 2 1 0 -0 -1 -2 -3 -4 -5
7 6 7 7 6 6 5 5 4 3 2 1 1 1 0 0 -0 -1 -3 -4 -4 -5
6 7 7 6 5 5 4 3 2 2 1 1 1 0 -0 -1 -1 -2 -4 -4 -6 -6
7 6 6 5 4 4 3 2 1 0 1 0 -0 -0 -1 -1 -2 -3 -5 -6 -6 -7
6 5 4 4 3 2 1 0 0 0 0 -0 -1 -1 -2 -2 -3 -4 -6 -6 -6 -7
4 4 3 2 2 1 -0 0 0 -0 -1 -1 -2 -2 -2 -3 -4 -6 -7 -7 -7 -7
3 3 2 1 0 0 0 -0 -1 -1 -2 -2 -2 -3 -3 -4 -6 -8 -8 -8 -8 -8
Height
1437 1444 1451 1456 1461 1467 1472 1477 1482 1486 1489 1491 1492 1493 1492 1492 1491 1491 1490 1489 1487 1486
1435 1441 1448 1454 1459 1466 1471 1474 1480 1484 1487 1488 1489 1490 1490 1489 1488 1487 1487 1485 1483 1482
1432 1439 1445 1451 1457 1463 1468 1473 1477 1481 1484 1486 1487 1487 1487 1486 1485 1485 1484 1481 1480 1478
1430 1436 1442 1449 1454 1460 1466 1471 1475 1478 1481 1483 1484 1484 1484 1483 1482 1481 1480 1478 1475 1473
1427 1434 1440 1448 1452 1458 1463 1468 1472 1475 1477 1479 1481 1481 1481 1481 1479 1478 1476 1473 1470 1468
1426 1432 1440 1447 1452 1457 1462 1466 1469 1472 1474 1476 1477 1478 1478 1477 1476 1474 1471 1468 1465 1463
1425 1432 1440 1446 1451 1456 1461 1465 1468 1470 1471 1473 1473 1474 1474 1474 1472 1469 1467 1464 1461 1458
1425 1433 1439 1445 1450 1455 1460 1464 1467 1468 1469 1470 1470 1470 1471 1470 1467 1465 1462 1459 1456 1453
1423 1431 1439 1446 1452 1456 1459 1460 1466 1467 1467 1467 1467 1467 1466 1465 1462 1459 1456 1453 1450 1448
1424 1430 1437 1444 1451 1454 1461 1462 1464 1465 1464 1464 1463 1463 1462 1460 1456 1454 1452 1449 1446 1443
1430 1432 1437 1443 1450 1453 1460 1462 1462 1462 1461 1461 1460 1459 1457 1454 1452 1450 1447 1445 1442 1438
1426 1432 1440 1445 1451 1456 1458 1458 1458 1458 1458 1457 1456 1454 1452 1450 1447 1445 1443 1440 1437 1433
1429 1437 1443 1448 1452 1453 1455 1455 1455 1455 1455 1454 1452 1450 1448 1445 1443 1440 1438 1434 1431 1429
1435 1440 1444 1447 1450 1452 1453 1453 1453 1453 1452 1450 1448 1446 1444 1441 1438 1435 1432 1429 1426 1423
Wind_Speed
34 34 32 30 32 33 31 28 24 20 16 11 8 7 8 10 12 13 14 14 14 15
34 35 31 32 34 32 28 26 23 19 14 11 8 8 9 11 13 14 15 15 15 17
36 33 33 33 33 31 26 24 22 17 13 10 8 9 10 12 13 14 14 16 17 18
35 33 33 34 31 29 25 23 19 16 12 9 8 9 11 13 14 15 15 17 18 20
36 35 33 32 29 27 25 21 18 13 10 8 9 10 12 13 15 16 17 18 20 21
37 35 33 30 27 25 23 19 15 12 9 8 9 12 13 15 16 17 19 19 20 21
36 34 31 28 26 23 19 15 12 9 8 8 10 13 14 16 17 18 19 20 20 21
34 31 28 26 23 19 15 12 9 8 7 8 12 14 14 17 18 19 19 20 20 19
32 29 26 22 18 15 11 10 9 7 7 12 13 14 16 18 20 19 19 21 21 20
31 29 25 20 15 12 12 8 6 7 11 11 13 15 17 19 20 20 19 20 20 19
28 23 19 16 15 11 9 6 7 9 9 11 14 16 17 19 20 19 18 18 19 20
19 19 18 15 12 10 6 7 7 8 10 12 13 18 18 20 21 19 17 17 19 19
20 17 15 12 9 6 5 5 6 9 11 13 14 16 19 21 21 17 17 18 18 19
17 14 10 5 5 5 4 5 7 9 11 13 15 16 19 20 18 16 18 19 22 21
Wind_Direction
209 199 199 203 198 195 197 197 197 201 210 220 241 271 299 314 320 318 314 309 305 302
202 195 196 197 191 192 194 195 196 204 212 226 248 278 302 312 315 313 307 305 305 304
195 195 193 193 187 190 196 193 196 205 216 233 257 284 301 308 307 306 301 300 300 299
194 192 189 187 189 194 191 192 198 207 219 240 269 292 302 303 302 303 300 299 300 301
186 185 183 185 186 185 187 192 202 210 224 250 277 293 298 300 301 300 299 299 299 300
178 180 181 182 181 182 188 195 200 212 231 259 282 294 298 299 300 300 300 300 297 297
173 176 178 179 178 182 187 194 202 217 243 271 292 297 299 301 304 303 300 298 296 298
169 172 173 174 177 184 188 197 214 232 257 289 295 296 301 303 303 302 298 296 300 300
171 170 171 172 176 181 190 207 224 248 285 294 290 301 304 305 305 305 302 300 300 300
163 165 166 173 186 197 204 214 234 277 291 291 300 306 305 307 312 311 305 303 302 301
162 161 171 180 184 188 203 222 267 286 292 301 300 305 309 315 317 312 307 301 299 302
164 164 165 171 180 186 212 266 272 288 298 300 304 311 315 316 318 313 307 299 302 305
153 162 165 167 174 231 243 259 287 295 300 305 307 309 317 318 319 313 306 308 307 305
150 153 161 186 193 211 251 282 296 307 309 307 307 308 312 318 321 314 312 312 307 309